Estherville, IA

7:55 PM CST on December 13, 2017 (GMT -0600)
Estherville Municipal

Weather History for KEST - October, 2010

Change the Weather History Date:

Wednesday, October 20, 2010

  Actual Average Record
Temperature  
Mean Temperature 53 °F 46 °F  
Max Temperature 71 °F 58 °F 82 °F (1953)
Min Temperature 35 °F 35 °F 15 °F (1960)
Degree Days  
Heating Degree Days 12 19  
Month to date heating degree days 212 302  
Since 1 July heating degree days 367 510  
Cooling Degree Days 0 0  
Month to date cooling degree days 9 4  
Year to date cooling degree days 721 591  
Growing Degree Days 4 (Base 50)    
Moisture  
Dew Point 33 °F    
Average Humidity 57    
Maximum Humidity 85    
Minimum Humidity 28    
Precipitation  
Precipitation 0.00 in 0.06 in 2.86 in (2006)
Month to date precipitation 0.00 1.66  
Year to date precipitation 31.17  
Sea Level Pressure  
Sea Level Pressure 29.88 in    
Wind  
Wind Speed 15 mph (WNW)    
Max Wind Speed 31 mph    
Max Gust Speed 40 mph    
Visibility 10 miles    
Events      
T = Trace of Precipitation, MM = Missing Value Source: NWS Daily Summary

Daily Weather History Graph

Daily Weather History Graph

Search for Another Location

Airport or City:

Trip Planner

Search our weather history database for the weather conditions in past years. The results will help you decide how hot, cold, wet, or windy it might be!

Date:

Astronomy

Oct. 20, 2010 Rise Set
Actual Time 7:39 AM CDT 6:27 PM CDT
Civil Twilight 7:10 AM CDT 6:56 PM CDT
Nautical Twilight 6:36 AM CDT 7:29 PM CDT
Astronomical Twilight 6:03 AM CDT 8:02 PM CDT
Moon 5:04 PM CDT (10/20) 5:19 AM CDT (10/20)
Length of Visible Light 11h 46m
Length of Day
10h 48m
Waxing Gibbous, 95% of the Moon is Illuminated
Oct 20
Waxing Gibbous
Oct 22
Full
Oct 30
Last Quarter
Nov 5
New
Nov 13
First Quarter

Hourly Weather History & Observations

Time (CDT) Temp. Windchill Dew Point Humidity Pressure Visibility Wind Dir Wind Speed Gust Speed Precip Events Conditions
12:52 AM 39.0 °F 33.4 °F 33.1 °F 79% 29.88 in 10.0 mi West 8.1 mph - N/A   Clear
1:52 AM 37.9 °F - 32.0 °F 79% 29.87 in 10.0 mi North - - N/A   Clear
2:52 AM 37.0 °F 29.8 °F 32.0 °F 82% 29.87 in 10.0 mi West 10.4 mph - N/A   Clear
3:52 AM 39.0 °F 32.3 °F 34.0 °F 82% 29.87 in 10.0 mi WSW 10.4 mph - N/A   Clear
4:52 AM 39.9 °F 33.9 °F 34.0 °F 79% 29.87 in 10.0 mi West 9.2 mph - N/A   Clear
5:52 AM 41.0 °F 34.3 °F 33.1 °F 73% 29.87 in 10.0 mi West 11.5 mph - N/A   Clear
6:52 AM 39.9 °F 32.9 °F 33.1 °F 77% 29.88 in 10.0 mi WNW 11.5 mph - N/A   Clear
7:52 AM 37.9 °F 31.5 °F 33.1 °F 83% 29.89 in 10.0 mi WNW 9.2 mph - N/A   Clear
8:52 AM 46.9 °F - 37.0 °F 68% 29.89 in 10.0 mi West 9.2 mph - N/A   Clear
9:52 AM 53.1 °F - 36.0 °F 52% 29.89 in 10.0 mi West 8.1 mph - N/A   Clear
10:52 AM 57.9 °F - 37.9 °F 47% 29.88 in 10.0 mi WSW 13.8 mph - N/A   Clear
11:52 AM 63.0 °F - 36.0 °F 37% 29.87 in 10.0 mi West 21.9 mph 27.6 mph N/A   Clear
12:52 PM 66.9 °F - 35.1 °F 31% 29.83 in 10.0 mi West 21.9 mph 29.9 mph N/A   Clear
1:52 PM 69.1 °F - 35.1 °F 29% 29.82 in 10.0 mi WNW 24.2 mph 35.7 mph N/A   Clear
2:52 PM 70.0 °F - 35.1 °F 28% 29.80 in 10.0 mi West 31.1 mph 38.0 mph N/A   Clear
3:52 PM 70.0 °F - 36.0 °F 29% 29.80 in 10.0 mi WNW 23.0 mph 36.8 mph N/A   Clear
4:52 PM 68.0 °F - 35.1 °F 30% 29.81 in 10.0 mi WNW 29.9 mph 35.7 mph N/A   Clear
5:52 PM 62.1 °F - 37.0 °F 39% 29.84 in 10.0 mi NNW 21.9 mph 31.1 mph N/A   Clear
6:52 PM 57.9 °F - 36.0 °F 44% 29.88 in 10.0 mi NNW 15.0 mph - N/A   Clear
7:52 PM 55.0 °F - 32.0 °F 42% 29.90 in 10.0 mi NNW 18.4 mph - N/A   Clear
8:52 PM 51.1 °F - 27.0 °F 39% 29.93 in 10.0 mi NNW 12.7 mph - N/A   Clear
9:52 PM 46.0 °F 41.4 °F 26.1 °F 46% 29.95 in 10.0 mi NNW 9.2 mph - N/A   Clear
10:52 PM 37.0 °F 31.0 °F 26.1 °F 65% 29.97 in 10.0 mi WNW 8.1 mph - N/A   Clear
11:52 PM 37.0 °F 30.4 °F 26.1 °F 65% 29.98 in 10.0 mi WNW 9.2 mph - N/A   Clear